Regional Weather Roundup
Issued by NWS

Home | Current Version | Previous Version | Text Only | Print | Product List | Glossary Off
Versions: 1 2 3 4 5 6 7 8 9 10 11 12 13 14 15 16 17 18 19 20 21 22 23 24 25 26 27 28 29 30 31 32 33 34 35 36 37 38 39 40 41 42 43 44 45 46 47

000
ASUS45 KBOU 221407
RWRCO

WEATHER ROUNDUP FOR COLORADO
NATIONAL WEATHER SERVICE DENVER/BOULDER CO
800 AM MDT TUE JUL 22 2014

NOTE: "FAIR" INDICATES FEW OR NO CLOUDS BELOW 12000 FEET WITH NO
SIGNIFICANT WEATHER AND/OR OBSTRUCTIONS TO VISIBILITY.

COZ001>005-013-030-031-221500-
...NORTHWEST COLORADO...

CITY           SKY/WX    TMP DP  RH WIND       PRES   REMARKS
CRAIG          SUNNY     49  43  80 CALM      30.39R
HAYDEN         SUNNY     59  37  44 SE10      30.40S
MEEKER         SUNNY     59  34  39 VRB3      30.40S
MOUNT WERNER   NOT AVBL
STEAMBOAT SPGS SUNNY     54  38  55 CALM      30.44R
WALDEN         SUNNY     54  36  50 CALM      30.52R
$$

COZ006>008-011-221500-
...WEST CENTRAL VALLEYS...

CITY           SKY/WX    TMP DP  RH WIND       PRES   REMARKS
GRAND JUNCTION SUNNY     73  32  22 S8        30.27S
MONTROSE       SUNNY     68  36  30 E7        30.38R
EAGLE          SUNNY     55  41  58 CALM      30.49R
RIFLE          SUNNY     62  40  44 CALM      30.37R
DELTA          SUNNY     68  35  29 N6        30.34R
NUCLA          SUNNY     64  32  29 SE3       30.40R
$$

COZ017>023-064>068-221500-
...SOUTHWEST COLORADO...

CITY           SKY/WX    TMP DP  RH WIND       PRES   REMARKS
DURANGO        SUNNY     62  36  37 CALM      30.40R
CORTEZ         SUNNY     63  37  38 E5        30.35R
PAGOSA SPRINGS SUNNY     65  41  41 CALM      30.49R
TELLURIDE      SUNNY     57  30  35 E5        30.61R
WOLF CREEK PAS NOT AVBL
$$

COZ009-010-012-014-032>034-037-058>063-221500-
...CENTRAL COLORADO...

CITY           SKY/WX    TMP DP  RH WIND       PRES   REMARKS
ASPEN          SUNNY     60  36  40 SE8       30.52R
BUENA VISTA    SUNNY     61  34  36 NW8       30.53R
COPPER MTN     SUNNY     59  23  25 W8        30.85R
BERTHOUD PASS  FAIR      48  34  57 W10       30.89R
COTTONWOOD PAS SUNNY     66  19  16 W7        30.66S
GUNNISON       SUNNY     48  36  61 CALM      30.59R
KREMMLING      SUNNY     54  41  62 CALM      30.54R
LEADVILLE      SUNNY     54  35  48 NE5       30.67R
MONARCH PASS   SUNNY     55  27  33 N3        30.93R
SALIDA         SUNNY     60  40  47 W6        30.58R
SUNLIGHT       SUNNY     61  25  25 CALM      30.75S
WILKERSON PASS SUNNY     61  28  29 NW5       30.81R
$$

COZ069>075-221500-
...SAN LUIS VALLEY/SANGRE DE CRISTO MOUNTAINS...

CITY           SKY/WX    TMP DP  RH WIND       PRES   REMARKS
ALAMOSA        SUNNY     56  47  71 CALM      30.49R
LA VETA PASS   SUNNY     61  37  41 W5        30.67R
SAGUACHE       SUNNY     61  37  41 NW7       30.52R
$$

COZ035-036-038>040-221500-
...NORTHERN COLORADO FRONT RANGE...

CITY           SKY/WX    TMP DP  RH WIND       PRES   REMARKS
DENVER INTL AP MOSUNNY   72  48  42 N15       30.31R
DMNS CITY PARK   N/A     73  48  40 N5G10     30.31R
AURORA         MOSUNNY   69  49  48 W8        30.34R
FRONT RANGE AP NOT AVBL
ERIE MUNI ARPT SUNNY     71  49  45 CALM      30.30R
BOULDER MUN AP SUNNY     73  46  38 CALM      30.31R
CENTENNIAL     MOSUNNY   70  43  37 W13       30.33R
BROOMFIELD     MOSUNNY   73  45  35 NW8       30.34R
FORT COLLINS   SUNNY     70  48  46 N9        30.30R
LONGMONT       SUNNY     76  50  39 CALM      30.31R
$$

COZ041-046-047-076>085-087-088-221500-
...PIKES PEAK/PALMER DIVIDE AND SOUTHERN FOOTHILLS...

CITY           SKY/WX    TMP DP  RH WIND       PRES   REMARKS
COLO. SPRINGS  MOSUNNY   77  49  37 N8        30.33S
A. F. ACADEMY  SUNNY     70  49  47 N7        30.36S
ELLICOTT       SUNNY     75  50  41 N8        30.30S
FALCON         SUNNY     76  44  32 NW6       30.39S
FORT CARSON    SUNNY     73  49  42 NW10      30.30R
LIMON          SUNNY     77  51  40 NW10      30.27R
MONUMENT HILL  SUNNY     72  45  37 W6        30.40R
TRINIDAD       SUNNY     74  54  49 W16       30.29R
$$

COZ042>045-048>051-090-091-221500-
...NORTHEAST COLORADO...

CITY           SKY/WX    TMP DP  RH WIND       PRES   REMARKS
GREELEY ARPT   SUNNY     70  54  56 N10       30.27R
AKRON          SUNNY     76  54  46 E16       30.26R
BURLINGTON     SUNNY     78  58  49 N10       30.18R
WRAY             N/A     78  58  49 E12       30.18R
STERLING       SUNNY     77  55  47 CALM      30.21R
HOLYOKE        SUNNY     79  59  50 SE7       30.20R
FORT MORGAN    SUNNY     73  54  51 E9        30.26R
$$

COZ086-089-092>099-221500-
...SOUTHEAST COLORADO...

CITY           SKY/WX    TMP DP  RH WIND       PRES   REMARKS
PUEBLO         SUNNY     70  52  52 SW5       30.22R
LA JUNTA       SUNNY     71  59  65 W9        30.17R
LAMAR          SUNNY     75  62  64 NE7       30.14R
SPRINGFIELD      N/A     75  61  61 NW5       30.18R
$$



USA.gov is the U.S. government's official web portal to all federal, state and local government web resources and services.